Flag for Czech Republic Weather past 2 weeks in Brno, Czech Republic

Now
59 °F

Passing clouds.


Feels Like: 60 °F
Forecast: 48 / 71 °F
Wind: 3 mph from West

Location: Brno / Turany

Current Time: May 30, 2015 at 11:15:12 PM

Latest Report: May 30, 2015 at 10:00 PM


Visibility: 13 mi

Pressure: 30.03 "Hg

Humidity: 64%

Dew point: 47 °F

Location of BrnoLocation

Historic Weather in Brno — Graph

°F

Brno temperature yesterday

Maximum temperature yesterday: 72 °F (at 3:00 PM)
Minimum temperature yesterday: 43 °F (at 5:00 AM)
Average temperature yesterday: 60 °F

Past Weeks' High & Low Weather Summary

 TemperatureHumidityPressure
High73 °F (May 16, 5:00 PM)96% (May 24, 4:00 AM)30.23 "Hg (May 24, 4:00 AM)
Low41 °F (May 18, 6:00 AM)31% (May 16, 1:00 PM)29.75 "Hg (May 19, 6:00 AM)
Average58 °F67%30.00 "Hg
* Reported May 15 10:00 PM — May 30 10:00 PM, Brno, Weather by CustomWeather, © 2015

Note: Actual official high and low records may vary slightly from our data, if they occured in-between our weather recording intervals... More about our weather records

Advertising

Brno weather history for previous 24 hours

 ConditionsComfort  
Time TempWeatherWind HumidityBarometerVisibility
10:00 PM
Sat, May 30
59 °FPassing clouds.3 mph64%30.03 "Hg12 mi
9:00 PM61 °FPassing clouds.2 mph60%30.01 "Hg19 mi
8:00 PM65 °FPartly sunny.6 mph55%29.98 "Hg22 mi
7:00 PM66 °FPartly sunny.6 mph57%29.95 "Hg22 mi
6:00 PM69 °FScattered clouds.6 mph55%29.94 "Hg16 mi
5:00 PM67 °FThunderstorms. Scattered clouds.5 mph65%29.94 "Hg22 mi
4:00 PM64 °FThunderstorms. Partly sunny.6 mph76%29.94 "Hg12 mi
3:00 PM72 °FThunderstorms. Partly sunny.7 mph58%29.87 "Hg19 mi
2:00 PM69 °FThunderstorms. Partly sunny.6 mph62%29.90 "Hg19 mi
1:00 PM70 °FPartly sunny.7 mph63%29.90 "Hg19 mi
12:00 PM67 °FPartly sunny.6 mph68%29.91 "Hg19 mi
11:00 AM69 °FPartly sunny.6 mph67%29.91 "Hg16 mi
10:00 AM65 °FPartly sunny.5 mph73%29.91 "Hg12 mi
9:00 AM64 °FPartly sunny.3 mph77%29.91 "Hg7 mi
8:00 AM61 °FPartly sunny.3 mph79%29.91 "Hg6 mi
7:00 AM56 °FFog.1 mph89%29.91 "Hg5 mi
6:00 AM54 °FPartly sunny.1 mph93%29.90 "Hg9 mi
4:00 AMN/APassing clouds.93 mphN/AN/A1 mi
3:00 AM58 °FLight rain. Overcast.3 mph77%29.88 "Hg22 mi
2:00 AM59 °FOvercast.2 mph70%29.87 "Hg25 mi
1:00 AM60 °FPassing clouds.2 mph66%29.87 "Hg25 mi
12:00 AM56 °FPassing clouds.5 mph78%29.86 "Hg25 mi
Weather by CustomWeather, © 2015

See weather overviewHow to use our weather pages